Regional Weather Roundup
Issued by NWS

Home | Current Version | Previous Version | Graphics & Text | Print | Product List | Glossary On
Versions: 1 2 3 4 5 6 7 8 9 10 11 12 13 14 15 16 17 18 19 20 21 22 23 24 25 26 27 28 29 30 31 32 33 34 35 36 37 38 39 40 41 42 43 44 45 46 47 48 49 50
000
ASUS45 KSLC 250210
RWRUT

UTAH REGIONAL WEATHER ROUNDUP
NATIONAL WEATHER SERVICE SALT LAKE CITY UT
800 PM MDT SUN MAY 24 2015

UTZ001>011-023>025-250300-

NORTHERN UTAH

CITY           SKY/WX    TMP DP  RH WIND       PRES   REMARKS
BRIGHAM CITY   MOCLDY    58  47  67 S7        29.89S
HILL AFB       MOCLDY    59  43  55 W8        29.90R
LOGAN          CLEAR     58  44  60 E5        29.88R
OGDEN          MOCLDY    60  42  51 W8        29.88S
PROVO AIRPORT  PTCLDY    57  45  62 CALM      29.91R
SALT LAKE CITY MOCLDY    63  43  48 NW9       29.88R
VERNAL         CLOUDY    51  43  74 CALM      29.92R
WENDOVER       PTCLDY    61  45  55 NW9       29.91R
HEBER CITY     MOCLDY    55  37  50 NE5       29.91R
WEST JORDAN    CLOUDY    61  39  44 NW7       29.90R

$$

UTZ012>022-026-027-250300-

SOUTHERN/CENTRAL UTAH

CITY           SKY/WX    TMP DP  RH WIND       PRES   REMARKS
BLANDING       PTCLDY    56  43  61 SE5       29.98S
BRYCE CANYON   MOCLDY    48  38  68 NW16G23   30.01R
CEDAR CITY     MOCLDY    54  45  71 NW5       29.96R
DELTA          MOCLDY    60  42  52 W5        29.91R
HANKSVILLE     MOCLDY    68  34  28 S6        29.84R
MILFORD        MOCLDY    57  48  72 S6        29.93R
MOAB/CYNLANDS  MOCLDY    67  33  28 CALM      29.81S
PRICE          MOCLDY    60  36  40 W16G22    29.88R
ST GEORGE      MOCLDY    66  48  52 W6        29.89R
KANAB          CLOUDY    57  48  72 SW5       29.98R

$$

REGIONAL REPORTS     COLORADO/ARIZONA

CITY           SKY/WX    TMP DP  RH WIND       PRES   REMARKS
CRAIG, CO      CLOUDY    46  39  76 W9        29.94R
GRAND JUNCTION LGT RAIN  53  45  74 N10       29.90R
RIFLE          RAIN      47  44  90 CALM      29.96R FOG
MONTROSE       CLOUDY    53  42  66 SW6       29.94R
CORTEZ         CLEAR     55  40  56 W6        29.94R
PAGE, AZ       MOCLDY    65  48  54 N7        29.88R
GRAND CANYON   MOCLDY    49  46  90 CALM      30.03S
KINGMAN        CLOUDY    74  36  25 SW13      29.88S
FLAGSTAFF      MOCLDY    47  43  86 SW10      30.05S

$$

REGIONAL REPORTS    NEVADA/IDAHO/WYOMING

CITY           SKY/WX    TMP DP  RH WIND       PRES   REMARKS
LAS VEGAS, NV  MOCLDY    80  43  26 S13       29.75S
ELY            MOCLDY    52  40  63 N9        30.01S
ELKO           CLOUDY    53  48  83 S5        29.97R
POCATELLO, ID  PTCLDY    59  50  72 W6        29.90R
BURLEY         CLOUDY    54  50  86 SW3       29.90R
EVANSTON, WY   MOCLDY    46  42  86 SW13      29.96R
ROCK SPRINGS   CLOUDY    44  40  85 N6        29.96S
KEMMERER       LGT RAIN  43  41  93 SE6       29.97S

$$


USA.gov is the U.S. government's official web portal to all federal, state and local government web resources and services.